Mazar-I-Sharif, Afghanistan

6:47 PM AFT on February 12, 2016 (GMT +0430)
Mazar

Weather History for OAMS - December, 2013

Change the Weather History Date:

Friday, December 20, 2013

  Actual Average Record
Temperature  
Mean Temperature 36 °F -  
Max Temperature 45 °F 48 °F - ()
Min Temperature 28 °F 29 °F - ()
Degree Days  
Heating Degree Days 28    
Moisture  
Dew Point 29 °F    
Average Humidity 71    
Maximum Humidity 87    
Minimum Humidity 51    
Precipitation  
Precipitation 0.00 in 0.03 in - ()
Sea Level Pressure  
Sea Level Pressure 30.22 in    
Wind  
Wind Speed 7 mph ()    
Max Wind Speed 22 mph    
Max Gust Speed -    
Visibility 4.6 miles    
Events Rain    
T = Trace of Precipitation, MM = Missing Value Source: Averaged Metar Reports

Daily Weather History Graph

Daily Weather History Graph

Search for Another Location

Airport or City:

Trip Planner

Search our weather history database for the weather conditions in past years. The results will help you decide how hot, cold, wet, or windy it might be!

Date:

Astronomy

Dec. 20, 2013 Rise Set
Actual Time 7:09 AM AFT 4:48 PM AFT
Civil Twilight 6:40 AM AFT 5:17 PM AFT
Nautical Twilight 6:07 AM AFT 5:49 PM AFT
Astronomical Twilight 5:36 AM AFT 6:21 PM AFT
Moon 7:41 PM AFT (12/20) 8:51 AM AFT (12/20)
Length of Visible Light 10h 36m
Length of Day
9h 38m
Waning Gibbous, 92% of the Moon is Illuminated
Dec 20
Waning Gibbous
Dec 25
Last Quarter
Jan 1
New
Jan 8
First Quarter
Jan 16
Full

Hourly Weather History & Observations

Time (AFT) Temp. Windchill Dew Point Humidity Pressure Visibility Wind Dir Wind Speed Gust Speed Precip Events Conditions
12:20 AM 32.0 °F - 28.4 °F 87% 30.15 in 6.2 mi SSW 1.2 mph - N/A   Unknown
12:30 AM 33 °F - 28 °F 75% 30.23 in 6 mi SSW 2.2 mph - -  
1:20 AM 32.0 °F 28.7 °F 26.6 °F 80% 30.15 in 6.2 mi WSW 3.5 mph - N/A   Unknown
1:30 AM 31 °F - 27 °F 79% 30.22 in 6 mi WSW 4.5 mph - -  
2:20 AM 33.8 °F 28.6 °F 26.6 °F 75% 30.12 in 6.2 mi SE 5.8 mph - N/A   Unknown
2:30 AM 33 °F - 27 °F 70% 30.18 in 6 mi SE 6.7 mph - -  
3:20 AM 28.4 °F 21.2 °F 24.8 °F 86% 30.09 in 6.2 mi West 6.9 mph - N/A   Unknown
3:30 AM 29 °F - 25 °F 80% 30.19 in 6 mi West 6.7 mph - -  
4:20 AM 30.2 °F 25.4 °F 26.6 °F 86% 30.09 in 6.2 mi West 4.6 mph - N/A   Unknown
4:30 AM 31 °F - 26 °F 74%  in 6 mi West 4.5 mph - -  
5:20 AM 30.2 °F - 26.6 °F 86% 30.09 in 6.2 mi ENE 2.3 mph - N/A   Unknown
6:20 AM 30.2 °F 24.3 °F 26.6 °F 86% 30.12 in 5.0 mi West 5.8 mph - N/A   Unknown
6:30 AM 30 °F - 26 °F 79% 30.22 in 5 mi West 6.7 mph - -  
6:50 AM 28.4 °F 22.2 °F 24.8 °F 86% 30.12 in 3.1 mi WSW 5.8 mph - N/A   Partly Cloudy
7:08 AM 30.2 °F 26.7 °F 26.6 °F 86% 30.12 in 1.9 mi SW 3.5 mph - N/A   Scattered Clouds
7:20 AM 30.2 °F - 26.6 °F 86% 30.12 in 1.9 mi South 2.3 mph - N/A   Scattered Clouds
7:30 AM 31 °F - 27 °F 79% 30.22 in 2 mi South 2.2 mph - -   Mist
7:39 AM 32.0 °F - 28.4 °F 87% 30.15 in 2.5 mi SSW 2.3 mph - N/A   Scattered Clouds
7:50 AM 32.0 °F - 26.6 °F 80% 30.15 in 3.1 mi WSW 2.3 mph - N/A   Mostly Cloudy
8:20 AM 33.8 °F - 28.4 °F 81% 30.15 in 3.1 mi Variable 2.3 mph - N/A   Smoke
8:30 AM 33 °F - 28 °F 73% 30.23 in 3 mi 2.2 mph - -   Smoke
9:20 AM 39.2 °F 35.9 °F 30.2 °F 70% 30.15 in 4.3 mi SSW 4.6 mph - N/A   Mostly Cloudy
9:30 AM 38 °F - 29 °F 61% 30.22 in 4 mi SSW 4.5 mph - -   Smoke
9:51 AM 39.2 °F 35.9 °F 30.2 °F 70% 30.15 in 2.5 mi NNW 4.6 mph - N/A   Smoke
10:04 AM 39.2 °F 37.0 °F 30.2 °F 70% 30.18 in 1.9 mi NNW 3.5 mph - N/A   Smoke
10:20 AM 37.4 °F 33.8 °F 30.2 °F 75% 30.18 in 1.6 mi North 4.6 mph - N/A   Smoke
10:30 AM 38 °F - 29 °F 61% 30.24 in 2 mi North 4.5 mph - -   Smoke
10:41 AM 37.4 °F 34.9 °F 30.2 °F 75% 30.18 in 2.2 mi NNE 3.5 mph - N/A   Smoke
11:20 AM 39.2 °F 34.2 °F 30.2 °F 70% 30.18 in 3.1 mi WNW 6.9 mph - N/A   Smoke
11:30 AM 39 °F - 29 °F 58% 30.23 in 3 mi WNW 6.7 mph - -   Smoke
12:20 PM 41.0 °F 35.2 °F 32.0 °F 70% 30.15 in 3.1 mi WNW 9.2 mph - N/A   Smoke
12:30 PM 40 °F - 32 °F 63% 30.22 in 3 mi WNW 8.9 mph - -   Smoke
12:50 PM 41.0 °F 34.3 °F 30.2 °F 65% 30.18 in 5.0 mi West 11.5 mph - N/A   Mostly Cloudy
1:20 PM 41.0 °F 34.7 °F 32.0 °F 70% 30.18 in 5.6 mi West 10.4 mph - N/A   Mostly Cloudy
1:30 PM 40 °F - 32 °F 63% 30.23 in 6 mi West 11.2 mph - -   Scattered Clouds
2:20 PM 42.8 °F 34.8 °F 33.8 °F 70% 30.18 in 6.2 mi West 17.3 mph - N/A   Mostly Cloudy
2:30 PM 43 °F - 33 °F 58% 30.22 in 6 mi West 17.9 mph - -   Scattered Clouds
3:20 PM 42.8 °F 33.8 °F 30.2 °F 61% 30.18 in 6.2 mi West 21.9 mph - N/A   Mostly Cloudy
3:30 PM 42 °F - 30 °F 51% 30.24 in 6 mi West 22.4 mph - -   Scattered Clouds
4:20 PM 41.0 °F 31.9 °F 32.0 °F 70% 30.21 in 5.6 mi West 19.6 mph - N/A   Mostly Cloudy
4:30 PM 41 °F - 31 °F 58% 30.26 in 6 mi West 20.1 mph - -   Scattered Clouds
5:20 PM 41.0 °F 31.4 °F 30.2 °F 65% 30.24 in 5.0 mi West 21.9 mph - N/A   Mostly Cloudy
5:30 PM 40 °F - 30 °F 58% 30.28 in 5 mi West 22.4 mph - -   Overcast
6:20 PM 39.2 °F 29.8 °F 30.2 °F 70% 30.24 in 5.0 mi West 18.4 mph - N/A   Mostly Cloudy
6:30 PM 39 °F - 30 °F 61% 30.32 in 5 mi West 17.9 mph - -   Overcast
7:20 PM 39.2 °F 29.6 °F 30.2 °F 70% 30.27 in 5.0 mi West 19.6 mph - N/A   Mostly Cloudy
7:30 PM 39 °F - 30 °F 59% 30.33 in 5 mi West 20.1 mph - -   Overcast
8:20 PM 39.2 °F 29.3 °F 30.2 °F 70% 30.30 in 5.0 mi West 20.7 mph - N/A   Mostly Cloudy
8:30 PM 39 °F - 29 °F 58% 30.36 in 5 mi West 20.1 mph - -   Overcast
9:20 PM 39.2 °F 29.3 °F 28.4 °F 65% 30.33 in 5.0 mi West 20.7 mph - N/A   Mostly Cloudy
9:30 PM 39 °F - 29 °F 57% 30.38 in 5 mi West 20.1 mph - -   Overcast
10:20 PM 39.2 °F 30.2 °F 30.2 °F 70% 30.33 in 6.2 mi West 17.3 mph - N/A   Mostly Cloudy
10:30 PM 39 °F - 29 °F 58% 30.40 in 6 mi West 17.9 mph - -   Overcast
11:20 PM 37.4 °F 27.2 °F 32.0 °F 81% 30.36 in 6.2 mi West 19.6 mph - N/A Rain Light Rain
11:30 PM 37 °F - 31 °F 72% 30.43 in 6 mi West 20.1 mph - - Rain Light Rain